Waarnemingen

Advertentie
Mijn weer
Spa/La Sauveniere, België (6490): temperatuur & dauwpunt: 19.02.2018 18:00:00 - 25.02.2018 18:00:00 (CET)Spa/La Sauveniere, België (6490): windsnelheid & windstoten: 19.02.2018 18:00:00 - 25.02.2018 18:00:00 (CET)Spa/La Sauveniere, België (6490): windrichting: 19.02.2018 18:00:00 - 25.02.2018 18:00:00 (CET)Spa/La Sauveniere, België (6490): luchtdruk: 19.02.2018 18:00:00 - 25.02.2018 18:00:00 (CET)Spa/La Sauveniere, België (6490): zicht: 19.02.2018 18:00:00 - 25.02.2018 18:00:00 (CET)
Datum & Tijd tt [°C] td [°C] ff [km/u] ff [kn] fx [km/u] fx [kn] dd ppp [hPa] vv [km]
25.02.2018 18:00:00 -3,7 -19,3 18 10 29 16 ONO 1026,6 24
25.02.2018 17:00:00 -3,0 -20,6 18 10 32 18 ONO 1026,3 26
25.02.2018 16:00:00 -2,7 -18,6 18 10 - - ONO 1026,6 22
25.02.2018 15:00:00 -2,4 -18,9 18 10 36 19 ONO 1026,5 25
25.02.2018 14:00:00 -2,6 -19,4 18 10 32 18 O 1026,8 23
25.02.2018 13:00:00 -2,8 -18,0 18 10 - - ONO 1027,2 22
25.02.2018 12:00:00 -3,7 -21,1 22 12 43 23 O 1027,7 24
25.02.2018 11:00:00 -4,6 -20,4 22 12 43 23 O 1027,7 25
25.02.2018 10:00:00 -6,3 -20,7 22 12 - - OZO 1027,8 23
25.02.2018 09:00:00 -7,5 -18,0 25 14 40 21 OZO 1027,2 25
25.02.2018 08:00:00 -8,2 -20,0 18 10 32 18 OZO 1027,0 22
25.02.2018 07:00:00 -8,2 -19,0 14 8 - - O 1027,1 26
25.02.2018 06:00:00 -8,0 -17,0 14 8 32 18 O 1026,5 22
25.02.2018 05:00:00 -7,4 -17,4 18 10 36 19 OZO 1025,9 24
25.02.2018 04:00:00 -7,0 -17,4 14 8 - - O 1025,8 40
25.02.2018 03:00:00 -6,5 -16,6 14 8 36 19 O 1025,7 30
25.02.2018 02:00:00 -6,1 -17,3 18 10 36 19 O 1025,2 45
25.02.2018 01:00:00 -5,4 -16,5 22 12 - - O 1025,3 35
25.02.2018 00:00:00 -5,1 -16,5 18 10 32 18 O 1025,2 35
24.02.2018 23:00:00 -4,6 -15,6 22 12 36 19 O 1024,7 40
24.02.2018 22:00:00 -4,0 -14,1 18 10 - - O 1024,5 35
24.02.2018 21:00:00 -3,7 -14,0 18 10 40 21 O 1024,2 29
24.02.2018 20:00:00 -3,2 -12,3 22 12 43 23 O 1023,6 30
24.02.2018 19:00:00 -2,3 -11,9 22 12 - - O 1023,1 30
24.02.2018 18:00:00 -0,9 -10,0 18 10 43 23 O 1022,5 30
24.02.2018 17:00:00 0,4 -10,6 25 14 43 23 O 1022,0 30
24.02.2018 16:00:00 2,1 -10,7 25 14 - - O 1021,3 30
24.02.2018 15:00:00 2,4 -12,3 32 18 47 25 ONO 1021,0 30
24.02.2018 14:00:00 2,4 -14,0 29 16 50 27 O 1021,0 30
24.02.2018 13:00:00 2,0 -15,1 25 14 - - O 1021,1 30
24.02.2018 12:00:00 0,8 -16,2 25 14 68 37 OZO 1021,1 27
24.02.2018 11:00:00 -0,3 -17,7 36 19 61 33 OZO 1020,6 21
24.02.2018 10:00:00 -2,2 -18,7 36 19 - - ZO 1021,0 30
24.02.2018 09:00:00 -4,5 -18,5 29 16 50 27 ZO 1021,1 21
24.02.2018 08:00:00 -5,8 -19,4 29 16 47 25 ZO 1021,0 21
24.02.2018 07:00:00 -6,4 -17,2 32 18 - - ZO 1020,4 17
24.02.2018 06:00:00 -6,9 -16,1 22 12 40 21 OZO 1020,8 12
24.02.2018 05:00:00 -6,9 -15,9 22 12 36 19 OZO 1020,7 12
24.02.2018 04:00:00 -6,4 -16,2 22 12 - - OZO 1020,4 13
24.02.2018 03:00:00 -5,6 -15,6 14 8 47 25 OZO 1020,2 14
24.02.2018 02:00:00 -5,1 -16,1 25 14 47 25 OZO 1019,6 18
24.02.2018 01:00:00 -4,9 -17,1 22 12 - - ZO 1020,0 24
24.02.2018 00:00:00 -4,4 -17,9 29 16 47 25 ZO 1019,4 30
23.02.2018 23:00:00 -3,9 -19,8 18 10 32 18 OZO 1019,6 40
23.02.2018 22:00:00 -3,4 -13,4 4 2 - - OZO 1020,1 40
23.02.2018 21:00:00 -2,7 -17,7 11 6 29 16 O 1019,8 40
23.02.2018 20:00:00 -2,5 -14,3 7 4 22 12 O 1019,6 35
23.02.2018 19:00:00 -2,6 -14,4 14 8 - - ONO 1019,5 35
23.02.2018 18:00:00 -1,4 -15,7 14 8 32 18 ONO 1019,4 35
23.02.2018 17:00:00 -0,6 -12,5 18 10 36 19 O 1019,2 30
23.02.2018 16:00:00 -0,2 -13,5 18 10 - - ONO 1019,0 30
23.02.2018 15:00:00 -0,1 -14,0 22 12 36 19 ONO 1019,4 28
23.02.2018 14:00:00 -0,7 -16,0 22 12 36 19 ONO 1019,7 30
23.02.2018 13:00:00 -1,5 -13,1 25 14 - - ONO 1020,3 30
23.02.2018 12:00:00 -2,2 -16,5 22 12 32 18 ONO 1020,7 35
23.02.2018 11:00:00 -3,3 -15,0 18 10 32 18 O 1020,8 35
23.02.2018 10:00:00 -4,1 -15,7 18 10 - - O 1020,9 30
23.02.2018 09:00:00 -5,1 -13,3 14 8 29 16 O 1021,1 35
23.02.2018 08:00:00 -5,8 -14,6 11 6 25 14 O 1021,4 35
23.02.2018 07:00:00 -5,7 -13,6 14 8 - - O 1021,2 35
23.02.2018 06:00:00 -5,7 -13,6 11 6 29 16 ONO 1021,3 30
23.02.2018 05:00:00 -5,7 -11,7 11 6 22 12 ONO 1021,2 29
23.02.2018 04:00:00 -5,7 -12,3 7 4 - - ONO 1021,1 30
23.02.2018 03:00:00 -5,0 -13,4 14 8 22 12 O 1021,3 29
23.02.2018 02:00:00 -4,7 -11,8 14 8 32 18 O 1021,6 30
23.02.2018 01:00:00 -4,2 -12,8 14 8 - - O 1021,4 35
23.02.2018 00:00:00 -3,8 -13,2 14 8 29 16 O 1021,7 35
22.02.2018 23:00:00 -3,3 -10,8 14 8 25 14 O 1021,8 35
22.02.2018 22:00:00 -3,1 -11,7 11 6 - - O 1021,6 30
22.02.2018 21:00:00 -3,0 -13,1 11 6 32 18 ONO 1021,6 29
22.02.2018 20:00:00 -2,2 -9,1 18 10 29 16 ONO 1021,3 28
22.02.2018 19:00:00 -1,9 -9,9 11 6 - - ONO 1021,0 30
22.02.2018 18:00:00 -0,6 -10,6 14 8 36 19 ONO 1020,6 35
22.02.2018 17:00:00 0,3 -12,0 18 10 40 21 ONO 1020,4 29
22.02.2018 16:00:00 0,4 -10,0 22 12 - - ONO 1020,4 30
22.02.2018 15:00:00 0,2 -10,6 25 14 47 25 ONO 1021,1 40
22.02.2018 14:00:00 -0,1 -8,9 25 14 43 23 ONO 1021,9 21
22.02.2018 13:00:00 0,5 -10,6 22 12 - - ONO 1021,8 30
22.02.2018 12:00:00 -0,1 -9,6 22 12 43 23 O 1022,1 28
22.02.2018 11:00:00 -1,0 -10,8 22 12 40 21 O 1022,4 25
22.02.2018 10:00:00 -2,6 -9,7 22 12 - - O 1022,8 20
22.02.2018 09:00:00 -3,3 -11,3 22 12 36 19 O 1022,6 22
22.02.2018 08:00:00 -3,7 -11,3 18 10 36 19 O 1022,4 17
22.02.2018 07:00:00 -4,0 -9,9 14 8 - - ONO 1022,3 15
22.02.2018 06:00:00 -4,7 -4,7 4 2 7 4 N 1022,2 12
22.02.2018 05:00:00 -4,8 -13,4 4 2 14 8 ONO 1022,3 11
22.02.2018 04:00:00 -4,7 -9,4 7 4 - - O 1022,7 11
22.02.2018 03:00:00 -4,4 -12,8 7 4 14 8 OZO 1022,9 -
22.02.2018 02:00:00 -4,1 -8,6 4 2 11 6 OZO 1023,0 -
22.02.2018 01:00:00 -4,6 -10,4 0 0 - - N 1023,6 -
22.02.2018 00:00:00 -3,6 -10,4 7 4 11 6 OZO 1023,4 -
21.02.2018 23:00:00 -3,7 -8,4 4 2 7 4 O 1023,8 -
21.02.2018 22:00:00 -3,2 -8,3 4 2 - - O 1023,7 -
21.02.2018 21:00:00 -3,0 -9,7 11 6 18 10 NO 1023,8 -
21.02.2018 20:00:00 -2,6 -9,3 7 4 14 8 NO 1023,7 -
21.02.2018 19:00:00 -1,4 -9,7 7 4 - - NNO 1023,6 -
21.02.2018 18:00:00 -0,6 -6,9 11 6 25 14 NNO 1023,2 -
21.02.2018 17:00:00 0,5 -9,1 14 8 29 16 NNO 1023,0 -
21.02.2018 16:00:00 0,7 -5,3 14 8 - - N 1023,0 -
21.02.2018 15:00:00 1,4 -4,4 14 8 25 14 N 1023,4 5
21.02.2018 14:00:00 1,1 -5,0 14 8 29 16 N 1024,0 -
21.02.2018 13:00:00 0,7 -5,7 14 8 - - N 1024,2 -
21.02.2018 12:00:00 0,3 -6,8 11 6 22 12 ONO 1024,2 -
21.02.2018 11:00:00 -1,1 -8,7 11 6 25 14 ONO 1024,5 -
21.02.2018 10:00:00 -2,2 -6,9 11 6 - - ONO 1024,8 -
21.02.2018 09:00:00 -4,1 -8,7 7 4 7 4 OZO 1025,1 5
21.02.2018 08:00:00 -5,6 -14,1 4 2 14 8 ZZW 1024,8 4,3
21.02.2018 07:00:00 -4,5 -10,3 11 6 - - ONO 1024,1 -
21.02.2018 06:00:00 -5,7 -13,3 4 2 7 4 O 1024,8 2,2
21.02.2018 05:00:00 -5,7 -6,8 4 2 7 4 N 1024,2 2,4
21.02.2018 04:00:00 -5,2 -12,6 4 2 - - NNW 1023,4 4,1
21.02.2018 03:00:00 -4,6 -6,6 4 2 7 4 O 1023,4 3,7
21.02.2018 02:00:00 -4,2 -12,6 4 2 7 4 NO 1023,5 3,2
21.02.2018 01:00:00 -3,5 -6,8 7 4 - - ONO 1022,8 4,3
21.02.2018 00:00:00 -3,1 -12,1 4 2 4 2 O 1022,1 4,7
20.02.2018 23:00:00 -2,4 -4,2 4 2 7 4 ONO 1021,6 5
20.02.2018 22:00:00 -1,6 -10,9 4 2 - - O 1021,1 -
20.02.2018 21:00:00 -1,3 -7,0 7 4 11 6 NO 1020,7 5
20.02.2018 20:00:00 -0,5 -7,0 4 2 14 8 NO 1020,1 5
20.02.2018 19:00:00 -0,2 -7,3 7 4 - - NNO 1019,6 5
20.02.2018 18:00:00 0,9 -6,5 7 4 18 10 NNO 1018,8 -
20.02.2018 17:00:00 1,8 -3,4 11 6 18 10 NNO 1018,0 -
20.02.2018 16:00:00 2,2 -4,0 11 6 - - NNO 1017,6 -
20.02.2018 15:00:00 2,4 -4,9 11 6 18 10 N 1017,8 -
20.02.2018 14:00:00 2,5 -5,6 7 4 18 10 N 1017,8 12
20.02.2018 13:00:00 2,5 -5,9 7 4 - - NNW 1017,8 11
20.02.2018 12:00:00 1,5 -6,1 7 4 14 8 NNW 1018,5 11
20.02.2018 11:00:00 1,6 -8,6 4 2 14 8 ZW 1018,2 13
20.02.2018 10:00:00 0,3 -9,0 7 4 - - O 1017,9 13
20.02.2018 09:00:00 0,2 -7,1 11 6 18 10 OZO 1017,8 13
20.02.2018 08:00:00 -1,7 -7,1 7 4 11 6 OZO 1018,0 -
20.02.2018 07:00:00 -1,5 -10,5 4 2 - - OZO 1018,1 -
20.02.2018 06:00:00 -1,6 -3,0 4 2 7 4 O 1018,1 -
20.02.2018 05:00:00 -1,9 -12,5 4 2 4 2 ZO 1018,0 -
20.02.2018 04:00:00 -1,6 -4,4 4 2 - - ZW 1017,9 -
20.02.2018 03:00:00 -1,6 -12,0 0 0 11 6 N 1017,7 -
20.02.2018 02:00:00 -0,7 -8,2 4 2 11 6 ZO 1017,3 -
20.02.2018 01:00:00 -0,8 -2,7 7 4 - - ZO 1017,9 -
20.02.2018 00:00:00 -0,9 -9,7 11 6 14 8 ZZO 1017,9 -
19.02.2018 23:00:00 -0,8 -3,9 11 6 14 8 ZZO 1017,8 -
19.02.2018 22:00:00 -0,6 -10,6 11 6 - - ZZO 1018,1 -
19.02.2018 21:00:00 -0,4 -3,2 7 4 14 8 Z 1018,3 9
19.02.2018 20:00:00 -0,3 -10,9 11 6 14 8 ZZO 1018,3 9
19.02.2018 19:00:00 -0,2 -6,1 7 4 - - ZZO 1018,3 10
19.02.2018 18:00:00 0,1 -0,6 7 4 11 6 ZZO 1018,3 12

tt = temperatuur
td = dauwpunt
ff = windsnelheid
fx = windstoten
dd = windrichting
ppp = luchtdruk
vv = zicht

Weerstations in de omgeving